Regional Weather Roundup
Issued by NWS

Home | Current Version | Previous Version | Text Only | Print | Product List | Glossary Off
Versions: 1 2 3 4 5 6 7 8 9 10 11 12 13 14 15 16 17 18 19 20 21 22 23 24 25 26 27 28 29 30 31 32 33 34 35 36 37 38 39 40 41 42 43 44 45 46 47 48 49 50

000
ASUS45 KBOU 271910
RWRCO

WEATHER ROUNDUP FOR COLORADO
NATIONAL WEATHER SERVICE PUEBLO CO
100 PM MDT MON JUL 27 2015

NOTE: "FAIR" INDICATES FEW OR NO CLOUDS BELOW 12000 FEET WITH NO
SIGNIFICANT WEATHER AND/OR OBSTRUCTIONS TO VISIBILITY.

COZ001>005-013-030-031-272000-
...NORTHWEST COLORADO...

CITY           SKY/WX    TMP DP  RH WIND       PRES   REMARKS
CRAIG          MOSUNNY   87  40  19 SW28G37   29.98F
HAYDEN         MOSUNNY   84  37  18 SW24G37   30.01F
MEEKER         MOSUNNY   85  42  22 SW18G25   30.02F
MOUNT WERNER   NOT AVBL
STEAMBOAT SPGS FAIR      81  45  27 SW10G18   30.03F
WALDEN         PTSUNNY   75  36  23 S18G30    30.12F
$$

COZ006>008-011-272000-
...WEST CENTRAL VALLEYS...

CITY           SKY/WX    TMP DP  RH WIND       PRES   REMARKS
GRAND JUNCTION SUNNY     92  40  16 SW20G30   29.91F
MONTROSE       MOSUNNY   87  44  22 W18G24    30.04F
EAGLE          MOSUNNY   82  37  20 SW25G36   30.06F
RIFLE          MOSUNNY   91  38  15 SW25G37   29.95F
DELTA          NOT AVBL
NUCLA          MOCLDY    86  34  15 S22       30.10F
$$

COZ017>023-064>068-272000-
...SOUTHWEST COLORADO...

CITY           SKY/WX    TMP DP  RH WIND       PRES   REMARKS
DURANGO        SUNNY     79  46  31 E5        30.19F
CORTEZ         MOSUNNY   85  37  18 S13       30.11F
PAGOSA SPRINGS FAIR      74  43  32 SE3       30.27F
TELLURIDE      CLOUDY    70  37  30 W3        30.34S
WOLF CREEK PAS NOT AVBL
$$

COZ009-010-012-014-032>034-037-058>063-272000-
...CENTRAL COLORADO...

CITY           SKY/WX    TMP DP  RH WIND       PRES   REMARKS
ASPEN          MOSUNNY   78  41  26 SW9G24    30.15F
BUENA VISTA    PTSUNNY   76  41  27 S10       30.18F
COPPER MTN     PTSUNNY   64  37  36 SW10G21   30.51F
BERTHOUD PASS  PTSUNNY   52  41  66 MISG      30.55F
COTTONWOOD PAS PTSUNNY   70  32  24 W12G23    30.35F
GUNNISON       MOSUNNY   77  43  29 SW13      30.21F
KREMMLING      MOSUNNY   81  32  17 SW9G24    30.12F
LEADVILLE      PTSUNNY   68  36  30 VRB5G17   30.32F
MONARCH PASS   PTSUNNY   55  41  58 SW13      30.62F
SALIDA         NOT AVBL
NIWOT RIDGE    NOT AVBL
SUNLIGHT       PTSUNNY   63  46  55 SW5       30.40F
WILKERSON PASS PTSUNNY   64  41  42 SW7G18    30.48F
$$

COZ069>075-272000-
...SAN LUIS VALLEY/SANGRE DE CRISTO MOUNTAINS...

CITY           SKY/WX    TMP DP  RH WIND       PRES   REMARKS
ALAMOSA        MOSUNNY   78  48  34 S9        30.21F
LA VETA PASS   MOSUNNY   63  43  48 MISG      30.41F
SAGUACHE         N/A     68  54  60 S7        30.26
$$

COZ035-036-038>040-272000-
...NORTHERN COLORADO FRONT RANGE...

CITY           SKY/WX    TMP DP  RH WIND       PRES   REMARKS
DENVER INTL AP MOSUNNY   93  43  17 VRB5      29.91F
DMNS CITY PARK NOT AVBL
AURORA         PTSUNNY   89  47  23 SE5       29.94F
FRONT RANGE AP PTSUNNY   90  39  17 MISG      29.94F
ERIE MUNI ARPT FAIR      91  43  18 NE3       29.88F
BOULDER MUN AP FAIR      88  55  33 E3        29.90F
CENTENNIAL     PTSUNNY   91  44  19 SW16G24   29.95F
BROOMFIELD     NOT AVBL
LOVELAND       MOSUNNY   88  55  33 SE8       29.87F
LONGMONT       FAIR      94  53  25 SE8       29.89F
$$

COZ041-046-047-076>085-087-088-272000-
...PIKES PEAK/PALMER DIVIDE AND SOUTHERN FOOTHILLS...

CITY           SKY/WX    TMP DP  RH WIND       PRES   REMARKS
COLO. SPRINGS  PTSUNNY   86  47  25 SW12      30.02F
A. F. ACADEMY  DRIZZLE   88  43  20 W16       30.04F
ELLICOTT       FAIR     N/A N/A N/A W20G25    30.02F
FALCON         FAIR      83  46  27 SW7       30.10F
FORT CARSON    PTSUNNY   88  45  22 SW20G26   29.99F
LIMON          PTSUNNY   88  54  31 SW9       29.95F
MONUMENT HILL  PTSUNNY   81  46  30 SW9       30.09F
TRINIDAD       MOSUNNY   92  49  22 VRB7      30.01F
$$

COZ042>045-048>051-090-091-272000-
...NORTHEAST COLORADO...

CITY           SKY/WX    TMP DP  RH WIND       PRES   REMARKS
GREELEY ARPT   SUNNY     90  55  31 SE8       29.87F
AKRON            N/A    N/A N/A N/A MISG      29.88F
BURLINGTON     SUNNY     88  65  46 S23       29.91F
WRAY           FAIR      93  59  31 S20       29.84F
STERLING       NOT AVBL
HOLYOKE        FAIR      91  64  40 S10G20    29.83F
FORT MORGAN    FAIR      86  61  41 S5        29.87F
$$

COZ086-089-092>099-272000-
...SOUTHEAST COLORADO...

CITY           SKY/WX    TMP DP  RH WIND       PRES   REMARKS
PUEBLO         MOSUNNY   96  48  19 S14       29.91F
LA JUNTA       MOSUNNY   97  51  21 SW13G22   29.89F
LAMAR          SUNNY     95  64  35 S12G25    29.85F
SPRINGFIELD      N/A     92  64  39 S20G29    29.95F
$$



USA.gov is the U.S. government's official web portal to all federal, state and local government web resources and services.